CAL706 RPVM-RCTP

Flight info

Callsign CAL706
Flight time 2h 13m
Altitude 40000
Route MULOP4P MULOP W11 MIA A461 CAB B462 LAO/N0479F390 M646 POTIB Q14 TNN TNN1A
Aircraft A343/H-SDE2E3FGHIJ4J5M1RWXY/LB1D1

Departure

Time 2026-05-07 14:40
Airport Mactan Cebu International Airport (RPVM)

Arrival

Time 2026-05-07 16:54
Airport Taiwan Taoyuan International Airport (RCTP)
Time Latitude Longitude Altitude Speed Heading
2026-05-07 14:17 10.31359 123.97787 43 ft 0 kts 314°
2026-05-07 14:29 10.31346 123.97804 40 ft 4 kts 296°
2026-05-07 14:29 10.31336 123.97829 39 ft 4 kts 291°
2026-05-07 14:29 10.31326 123.97850 40 ft 4 kts 288°
2026-05-07 14:30 10.31325 123.97875 40 ft 4 kts 249°
2026-05-07 14:30 10.31338 123.97897 40 ft 3 kts 227°
2026-05-07 14:30 10.31342 123.97903 40 ft 0 kts 227°
2026-05-07 14:33 10.31339 123.97902 39 ft 1 kts 205°
2026-05-07 14:33 10.31328 123.97906 38 ft 4 kts 166°
2026-05-07 14:33 10.31300 123.97921 43 ft 5 kts 144°
2026-05-07 14:34 10.31271 123.97950 43 ft 6 kts 134°
2026-05-07 14:34 10.31234 123.97980 43 ft 7 kts 155°
2026-05-07 14:34 10.31192 123.97970 43 ft 6 kts 211°
2026-05-07 14:34 10.31149 123.97932 43 ft 10 kts 224°
2026-05-07 14:35 10.31086 123.97870 42 ft 15 kts 224°
2026-05-07 14:35 10.31002 123.97787 42 ft 19 kts 225°
2026-05-07 14:35 10.30904 123.97688 42 ft 21 kts 224°
2026-05-07 14:35 10.30793 123.97577 42 ft 24 kts 224°
2026-05-07 14:36 10.30670 123.97454 42 ft 25 kts 224°
2026-05-07 14:36 10.30543 123.97327 43 ft 26 kts 224°
2026-05-07 14:36 10.30417 123.97200 43 ft 26 kts 224°
2026-05-07 14:36 10.30285 123.97068 42 ft 27 kts 225°
2026-05-07 14:37 10.30152 123.96931 42 ft 27 kts 225°
2026-05-07 14:37 10.29920 123.96709 42 ft 11 kts 204°
2026-05-07 14:37 10.29855 123.96738 42 ft 11 kts 139°
2026-05-07 14:38 10.29795 123.96797 41 ft 13 kts 136°
2026-05-07 14:38 10.29725 123.96873 38 ft 14 kts 120°
2026-05-07 14:38 10.29739 123.96923 37 ft 7 kts 47°
2026-05-07 14:38 10.29744 123.96928 37 ft 0 kts 46°
2026-05-07 14:39 10.29745 123.96930 37 ft 5 kts 46°
2026-05-07 14:39 10.29914 123.97101 37 ft 65 kts 44°
2026-05-07 14:39 10.30366 123.97553 40 ft 116 kts 45°
2026-05-07 14:40 10.31029 123.98235 178 ft 146 kts 44°
2026-05-07 14:40 10.31735 123.98994 686 ft 151 kts 47°
2026-05-07 14:40 10.32460 123.99776 1194 ft 157 kts 48°
2026-05-07 14:40 10.33212 124.00585 1778 ft 159 kts 47°
2026-05-07 14:41 10.34023 124.01382 2412 ft 165 kts 45°
2026-05-07 14:41 10.35066 124.01945 2860 ft 188 kts
2026-05-07 14:41 10.36441 124.01589 3204 ft 225 kts 332°
2026-05-07 14:41 10.37886 124.00749 3538 ft 252 kts 338°
2026-05-07 14:42 10.39550 124.00072 4190 ft 263 kts 345°
2026-05-07 14:42 10.41324 123.99487 4949 ft 272 kts 347°
2026-05-07 14:42 10.42532 123.99111 5470 ft 276 kts 347°
2026-05-07 14:42 10.44385 123.98550 6339 ft 280 kts 347°
2026-05-07 14:43 10.46267 123.97990 7133 ft 283 kts 347°
2026-05-07 14:43 10.48134 123.97437 7925 ft 287 kts 348°
2026-05-07 14:43 10.50062 123.96871 8735 ft 290 kts 348°
2026-05-07 14:43 10.52016 123.96298 9554 ft 294 kts 348°
2026-05-07 14:44 10.54001 123.95718 10271 ft 301 kts 348°
2026-05-07 14:44 10.56072 123.95115 10637 ft 319 kts 347°
2026-05-07 14:44 10.58269 123.94476 10943 ft 337 kts 347°
2026-05-07 14:44 10.60584 123.93799 11257 ft 354 kts 347°
2026-05-07 14:45 10.62991 123.93040 11549 ft 371 kts 342°
2026-05-07 14:45 10.65317 123.91794 11955 ft 386 kts 327°
2026-05-07 14:45 10.67306 123.89920 12547 ft 393 kts 314°
2026-05-07 14:45 10.69113 123.87812 13129 ft 398 kts 313°
2026-05-07 14:46 10.70914 123.85659 13673 ft 402 kts 313°
2026-05-07 14:46 10.72742 123.83480 14172 ft 407 kts 313°
2026-05-07 14:46 10.74587 123.81289 14691 ft 409 kts 313°
2026-05-07 14:46 10.76445 123.79087 15221 ft 412 kts 313°
2026-05-07 14:47 10.78322 123.76867 15739 ft 415 kts 313°
2026-05-07 14:47 10.80214 123.74630 16250 ft 419 kts 313°
2026-05-07 14:47 10.82120 123.72375 16769 ft 422 kts 313°
2026-05-07 14:47 10.84041 123.70103 17302 ft 425 kts 313°
2026-05-07 14:48 10.85982 123.67808 17836 ft 429 kts 312°
2026-05-07 14:48 10.87934 123.65501 18345 ft 432 kts 312°
2026-05-07 14:48 10.89898 123.63178 18803 ft 435 kts 312°
2026-05-07 14:48 10.91879 123.60835 19272 ft 438 kts 312°
2026-05-07 14:49 10.93872 123.58476 19735 ft 441 kts 312°
2026-05-07 14:49 10.95878 123.56102 20196 ft 444 kts 312°
2026-05-07 14:49 10.97901 123.53708 20665 ft 447 kts 312°
2026-05-07 14:49 11.00011 123.51374 21098 ft 449 kts 317°
2026-05-07 14:50 11.02408 123.49332 21542 ft 451 kts 324°
2026-05-07 14:50 11.04947 123.47441 21976 ft 453 kts 326°
2026-05-07 14:50 11.07562 123.45615 22372 ft 457 kts 328°
2026-05-07 14:50 11.10178 123.43834 22751 ft 460 kts 328°
2026-05-07 14:51 11.12853 123.42019 23213 ft 462 kts 327°
2026-05-07 14:51 11.15532 123.40188 23561 ft 467 kts 327°
2026-05-07 14:51 11.18230 123.38328 23854 ft 471 kts 327°
2026-05-07 14:51 11.20939 123.36446 24289 ft 471 kts 327°
2026-05-07 14:52 11.23642 123.34559 24680 ft 472 kts 327°
2026-05-07 14:52 11.26362 123.32656 24933 ft 477 kts 327°
2026-05-07 14:52 11.29111 123.30731 25241 ft 480 kts 326°
2026-05-07 14:52 11.31860 123.28805 25695 ft 480 kts 326°
2026-05-07 14:53 11.34614 123.26875 26101 ft 481 kts 326°
2026-05-07 14:53 11.37371 123.24944 26523 ft 481 kts 326°
2026-05-07 14:53 11.40135 123.23008 26879 ft 483 kts 326°
2026-05-07 14:53 11.42921 123.21056 27204 ft 486 kts 325°
2026-05-07 14:54 11.45722 123.19094 27427 ft 491 kts 325°
2026-05-07 14:54 11.48542 123.17118 27764 ft 493 kts 325°
2026-05-07 14:54 11.51381 123.15129 28100 ft 495 kts 325°
2026-05-07 14:54 11.54218 123.13139 28576 ft 494 kts 325°
2026-05-07 14:55 11.57060 123.11147 28893 ft 497 kts 325°
2026-05-07 14:55 11.59914 123.09145 29154 ft 500 kts 324°
2026-05-07 14:55 11.62790 123.07127 29402 ft 503 kts 324°
2026-05-07 14:55 11.65677 123.05100 29718 ft 505 kts 324°
2026-05-07 14:56 11.68571 123.03069 30100 ft 504 kts 324°
2026-05-07 14:56 11.71453 123.01045 30520 ft 501 kts 324°
2026-05-07 14:56 11.74324 122.99030 30863 ft 501 kts 324°
2026-05-07 14:56 11.77198 122.97011 31172 ft 501 kts 324°
2026-05-07 14:57 11.80063 122.94998 31494 ft 501 kts 324°
2026-05-07 14:57 11.82896 122.93007 31786 ft 501 kts 324°
2026-05-07 14:57 11.85767 122.90988 32080 ft 501 kts 324°
2026-05-07 14:57 11.88635 122.88971 32397 ft 501 kts 324°
2026-05-07 14:58 11.91499 122.86957 32811 ft 497 kts 324°
2026-05-07 14:58 11.94342 122.84958 33212 ft 495 kts 324°
2026-05-07 14:58 11.97177 122.82962 33500 ft 495 kts 324°
2026-05-07 14:58 12.00015 122.80964 33805 ft 494 kts 324°
2026-05-07 14:59 12.02843 122.78973 34061 ft 494 kts 323°
2026-05-07 14:59 12.05664 122.76986 34393 ft 491 kts 323°
2026-05-07 14:59 12.08481 122.75002 34687 ft 490 kts 323°
2026-05-07 14:59 12.11285 122.73026 34895 ft 490 kts 323°
2026-05-07 15:00 12.14059 122.71070 35111 ft 490 kts 323°
2026-05-07 15:00 12.16863 122.69093 35350 ft 490 kts 323°
2026-05-07 15:00 12.19672 122.67112 35565 ft 490 kts 323°
2026-05-07 15:00 12.22478 122.65132 35788 ft 489 kts 323°
2026-05-07 15:01 12.25277 122.63157 36011 ft 489 kts 323°
2026-05-07 15:01 12.28076 122.61182 36206 ft 489 kts 323°
2026-05-07 15:01 12.30877 122.59205 36461 ft 488 kts 323°
2026-05-07 15:01 12.33668 122.57233 36704 ft 488 kts 323°
2026-05-07 15:02 12.36461 122.55261 36933 ft 487 kts 323°
2026-05-07 15:02 12.39249 122.53296 37288 ft 484 kts 323°
2026-05-07 15:02 12.42008 122.51348 37611 ft 481 kts 323°
2026-05-07 15:02 12.44758 122.49403 37840 ft 481 kts 323°
2026-05-07 15:03 12.47505 122.47458 38034 ft 480 kts 323°
2026-05-07 15:03 12.50251 122.45514 38237 ft 480 kts 323°
2026-05-07 15:03 12.52996 122.43570 38446 ft 479 kts 323°
2026-05-07 15:03 12.55735 122.41630 38623 ft 479 kts 323°
2026-05-07 15:04 12.58472 122.39692 38800 ft 478 kts 323°
2026-05-07 15:04 12.61209 122.37754 38935 ft 478 kts 323°
2026-05-07 15:04 12.63942 122.35819 39090 ft 477 kts 323°
2026-05-07 15:04 12.66671 122.33886 39260 ft 476 kts 323°
2026-05-07 15:05 12.69386 122.31962 39531 ft 473 kts 323°
2026-05-07 15:05 12.72083 122.30051 39718 ft 471 kts 323°
2026-05-07 15:05 12.74782 122.28137 39825 ft 472 kts 323°
2026-05-07 15:05 12.77447 122.26247 39887 ft 473 kts 323°
2026-05-07 15:06 12.82846 122.22415 39893 ft 472 kts 323°
2026-05-07 15:06 12.88254 122.18576 39897 ft 473 kts 323°
2026-05-07 15:07 12.93667 122.14731 39895 ft 473 kts 323°
2026-05-07 15:07 12.99078 122.10886 39901 ft 473 kts 323°
2026-05-07 15:08 13.04496 122.07034 39893 ft 473 kts 323°
2026-05-07 15:08 13.09904 122.03187 39892 ft 473 kts 323°
2026-05-07 15:09 13.15309 121.99340 39902 ft 472 kts 323°
2026-05-07 15:09 13.20707 121.95495 39901 ft 472 kts 323°
2026-05-07 15:10 13.26107 121.91647 39900 ft 472 kts 323°
2026-05-07 15:10 13.31506 121.87798 39901 ft 472 kts 323°
2026-05-07 15:11 13.36902 121.83948 39902 ft 472 kts 323°
2026-05-07 15:11 13.42295 121.80099 39900 ft 472 kts 323°
2026-05-07 15:12 13.47654 121.76273 39903 ft 472 kts 323°
2026-05-07 15:12 13.53053 121.72415 39903 ft 472 kts 323°
2026-05-07 15:13 13.58444 121.68561 39900 ft 472 kts 323°
2026-05-07 15:13 13.63837 121.64703 39901 ft 472 kts 323°
2026-05-07 15:14 13.69231 121.60844 39903 ft 472 kts 323°
2026-05-07 15:14 13.74624 121.56985 39904 ft 472 kts 323°
2026-05-07 15:15 13.80008 121.53124 39906 ft 472 kts 323°
2026-05-07 15:15 13.85392 121.49262 39905 ft 471 kts 323°
2026-05-07 15:16 13.90773 121.45400 39906 ft 471 kts 323°
2026-05-07 15:16 13.96120 121.41562 39911 ft 472 kts 323°
2026-05-07 15:17 14.01502 121.37697 39908 ft 471 kts 323°
2026-05-07 15:17 14.06887 121.33827 39909 ft 471 kts 323°
2026-05-07 15:18 14.12265 121.29970 39906 ft 471 kts 323°
2026-05-07 15:18 14.17636 121.26102 39900 ft 471 kts 323°
2026-05-07 15:19 14.23008 121.22230 39900 ft 471 kts 323°
2026-05-07 15:19 14.28386 121.18361 39900 ft 471 kts 323°
2026-05-07 15:20 14.33759 121.14484 39904 ft 470 kts 323°
2026-05-07 15:20 14.39087 121.10638 39906 ft 470 kts 323°
2026-05-07 15:21 14.44454 121.06763 39912 ft 471 kts 324°
2026-05-07 15:21 14.50179 121.03495 39911 ft 473 kts 339°
2026-05-07 15:22 14.56581 121.02206 39914 ft 475 kts 356°
2026-05-07 15:22 14.63216 121.02093 39909 ft 477 kts 359°
2026-05-07 15:23 14.69810 121.02166 39903 ft 477 kts 359°
2026-05-07 15:23 14.76459 121.02230 39901 ft 477 kts 359°
2026-05-07 15:24 14.83082 121.02262 39895 ft 475 kts 359°
2026-05-07 15:24 14.89695 121.02279 39897 ft 475 kts 359°
2026-05-07 15:25 14.96312 121.02294 39901 ft 475 kts 359°
2026-05-07 15:25 15.02929 121.02310 39903 ft 475 kts 359°
2026-05-07 15:26 15.09536 121.02328 39904 ft 474 kts 359°
2026-05-07 15:26 15.16140 121.02345 39905 ft 474 kts 359°
2026-05-07 15:27 15.22737 121.02363 39902 ft 474 kts 359°
2026-05-07 15:27 15.29332 121.02380 39902 ft 474 kts 359°
2026-05-07 15:28 15.35936 121.02398 39905 ft 474 kts 359°
2026-05-07 15:28 15.41412 121.02413 39902 ft 473 kts 359°
2026-05-07 15:29 15.49039 121.02181 39907 ft 471 kts 351°
2026-05-07 15:29 15.55522 121.01145 39905 ft 471 kts 349°
2026-05-07 15:30 15.60934 121.00164 39913 ft 471 kts 349°
2026-05-07 15:30 15.67397 120.98966 39913 ft 471 kts 349°
2026-05-07 15:31 15.73860 120.97779 39924 ft 472 kts 349°
2026-05-07 15:31 15.80324 120.96600 39923 ft 472 kts 349°
2026-05-07 15:32 15.86796 120.95423 39926 ft 472 kts 349°
2026-05-07 15:32 15.93227 120.94252 39927 ft 472 kts 349°
2026-05-07 15:33 15.99703 120.93072 39942 ft 472 kts 349°
2026-05-07 15:33 16.06177 120.91891 39947 ft 472 kts 349°
2026-05-07 15:34 16.12645 120.90711 39939 ft 472 kts 349°
2026-05-07 15:34 16.19104 120.89532 39940 ft 471 kts 349°
2026-05-07 15:35 16.25567 120.88350 39963 ft 472 kts 349°
2026-05-07 15:35 16.32033 120.87167 39961 ft 472 kts 349°
2026-05-07 15:36 16.38501 120.85984 39979 ft 472 kts 349°
2026-05-07 15:36 16.44916 120.84809 39978 ft 472 kts 349°
2026-05-07 15:37 16.51379 120.83625 39994 ft 472 kts 349°
2026-05-07 15:37 16.57850 120.82438 40007 ft 471 kts 349°
2026-05-07 15:38 16.64308 120.81255 40002 ft 471 kts 349°
2026-05-07 15:38 16.70764 120.80070 40006 ft 471 kts 349°
2026-05-07 15:39 16.77210 120.78885 40007 ft 471 kts 349°
2026-05-07 15:39 16.83660 120.77697 39998 ft 471 kts 349°
2026-05-07 15:40 16.90111 120.76510 39998 ft 471 kts 348°
2026-05-07 15:40 16.96548 120.75324 39998 ft 469 kts 348°
2026-05-07 15:41 17.02975 120.74140 39996 ft 469 kts 348°
2026-05-07 15:41 17.09401 120.72956 39955 ft 469 kts 348°
2026-05-07 15:42 17.15785 120.71779 39961 ft 469 kts 348°
2026-05-07 15:42 17.22206 120.70593 39946 ft 468 kts 348°
2026-05-07 15:43 17.28613 120.69412 39943 ft 467 kts 348°
2026-05-07 15:43 17.35018 120.68238 39931 ft 467 kts 348°
2026-05-07 15:44 17.41413 120.67056 39928 ft 466 kts 348°
2026-05-07 15:44 17.47805 120.65877 39922 ft 466 kts 348°
2026-05-07 15:45 17.54202 120.64697 39929 ft 466 kts 348°
2026-05-07 15:45 17.60544 120.63527 39907 ft 465 kts 348°
2026-05-07 15:46 17.70116 120.61762 39895 ft 465 kts 348°
2026-05-07 15:47 17.76490 120.60589 39887 ft 465 kts 348°
2026-05-07 15:47 17.82869 120.59408 39891 ft 465 kts 348°
2026-05-07 15:48 17.89242 120.58228 39883 ft 465 kts 348°
2026-05-07 15:48 17.95608 120.57051 39885 ft 465 kts 348°
2026-05-07 15:49 18.01978 120.55874 39886 ft 465 kts 348°
2026-05-07 15:49 18.08354 120.54694 39883 ft 465 kts 348°
2026-05-07 15:50 18.14727 120.53504 39883 ft 465 kts 348°
2026-05-07 15:50 18.21203 120.53208 39882 ft 468 kts
2026-05-07 15:51 18.27665 120.53629 39883 ft 469 kts
2026-05-07 15:51 18.34168 120.54174 39872 ft 469 kts
2026-05-07 15:52 18.40714 120.54725 39875 ft 469 kts
2026-05-07 15:52 18.47175 120.55251 39874 ft 468 kts
2026-05-07 15:53 18.53679 120.55773 39877 ft 468 kts
2026-05-07 15:53 18.60171 120.56293 39877 ft 468 kts
2026-05-07 15:54 18.66663 120.56814 39884 ft 468 kts
2026-05-07 15:54 18.73155 120.57345 39885 ft 468 kts
2026-05-07 15:55 18.79631 120.57863 39889 ft 467 kts
2026-05-07 15:55 18.86110 120.58379 39887 ft 466 kts
2026-05-07 15:56 18.92588 120.58899 39898 ft 466 kts
2026-05-07 15:56 18.99063 120.59421 39897 ft 466 kts
2026-05-07 15:57 19.05535 120.59943 39904 ft 466 kts
2026-05-07 15:57 19.11998 120.60471 39902 ft 465 kts
2026-05-07 15:58 19.18456 120.60995 39901 ft 465 kts
2026-05-07 15:58 19.24869 120.61509 39903 ft 465 kts
2026-05-07 15:59 19.31328 120.62030 39903 ft 465 kts
2026-05-07 15:59 19.37784 120.62553 39905 ft 465 kts
2026-05-07 16:00 19.44247 120.63082 39905 ft 465 kts
2026-05-07 16:00 19.50710 120.63607 39911 ft 465 kts
2026-05-07 16:01 19.57171 120.64127 39910 ft 465 kts
2026-05-07 16:01 19.63629 120.64650 39911 ft 465 kts
2026-05-07 16:02 19.70094 120.65175 39913 ft 465 kts
2026-05-07 16:02 19.76503 120.65697 39914 ft 465 kts
2026-05-07 16:03 19.82958 120.66223 39912 ft 465 kts
2026-05-07 16:03 19.89418 120.66749 39914 ft 465 kts
2026-05-07 16:04 19.95867 120.67275 39920 ft 465 kts
2026-05-07 16:04 20.02312 120.67801 39921 ft 465 kts
2026-05-07 16:05 20.08758 120.68328 39920 ft 465 kts
2026-05-07 16:05 20.15207 120.68856 39926 ft 465 kts
2026-05-07 16:06 20.21647 120.69383 39923 ft 464 kts
2026-05-07 16:06 20.28078 120.69910 39925 ft 464 kts
2026-05-07 16:07 20.34512 120.70437 39923 ft 463 kts
2026-05-07 16:07 20.40945 120.70965 39921 ft 463 kts
2026-05-07 16:08 20.47380 120.71493 39923 ft 463 kts
2026-05-07 16:08 20.53805 120.72022 39922 ft 463 kts
2026-05-07 16:09 20.60184 120.72546 39926 ft 463 kts
2026-05-07 16:09 20.66603 120.73075 39928 ft 463 kts
2026-05-07 16:10 20.73025 120.73604 39928 ft 463 kts
2026-05-07 16:10 20.79439 120.74133 39932 ft 462 kts
2026-05-07 16:11 20.85845 120.74662 39929 ft 461 kts
2026-05-07 16:11 20.92246 120.75191 39930 ft 461 kts
2026-05-07 16:12 20.98652 120.75575 39932 ft 459 kts 356°
2026-05-07 16:12 21.04893 120.74597 39934 ft 455 kts 346°
2026-05-07 16:13 21.11063 120.73084 39938 ft 454 kts 344°
2026-05-07 16:13 21.17202 120.71483 39931 ft 454 kts 344°
2026-05-07 16:14 21.23347 120.69888 39936 ft 454 kts 344°
2026-05-07 16:14 21.29495 120.68310 39936 ft 454 kts 345°
2026-05-07 16:15 21.35630 120.66742 39932 ft 451 kts 344°
2026-05-07 16:15 21.41720 120.65186 39936 ft 449 kts 344°
2026-05-07 16:16 21.46772 120.63892 39936 ft 449 kts 344°
2026-05-07 16:16 21.53839 120.62080 39937 ft 449 kts 344°
2026-05-07 16:17 21.58932 120.60777 39940 ft 449 kts 344°
2026-05-07 16:17 21.64973 120.59223 39941 ft 449 kts 344°
2026-05-07 16:18 21.71050 120.57654 39939 ft 449 kts 344°
2026-05-07 16:18 21.77118 120.56088 39932 ft 448 kts 344°
2026-05-07 16:19 21.83194 120.54527 39937 ft 448 kts 344°
2026-05-07 16:19 21.89262 120.52962 39945 ft 449 kts 344°
2026-05-07 16:20 21.95329 120.51395 39943 ft 448 kts 344°
2026-05-07 16:20 22.01390 120.49830 39943 ft 448 kts 344°
2026-05-07 16:21 22.07449 120.48264 39944 ft 448 kts 344°
2026-05-07 16:21 22.13505 120.46698 39944 ft 448 kts 344°
2026-05-07 16:22 22.19524 120.45141 39947 ft 448 kts 344°
2026-05-07 16:22 22.25586 120.43570 39940 ft 447 kts 344°
2026-05-07 16:23 22.31638 120.42001 39948 ft 447 kts 344°
2026-05-07 16:23 22.37697 120.40429 39947 ft 447 kts 344°
2026-05-07 16:24 22.43750 120.38857 39936 ft 447 kts 344°
2026-05-07 16:24 22.49799 120.37285 39950 ft 446 kts 344°
2026-05-07 16:25 22.55833 120.35715 39944 ft 445 kts 344°
2026-05-07 16:25 22.61836 120.34152 39937 ft 445 kts 344°
2026-05-07 16:26 22.67851 120.32583 39940 ft 445 kts 344°
2026-05-07 16:26 22.73873 120.31012 39947 ft 445 kts 344°
2026-05-07 16:27 22.79890 120.29442 39841 ft 445 kts 343°
2026-05-07 16:27 22.82859 120.28666 39615 ft 443 kts 343°
2026-05-07 16:27 22.85884 120.27875 39383 ft 441 kts 343°
2026-05-07 16:27 22.88868 120.27093 39156 ft 441 kts 343°
2026-05-07 16:28 22.91814 120.26321 38934 ft 441 kts 343°
2026-05-07 16:28 22.94793 120.25541 38713 ft 441 kts 343°
2026-05-07 16:28 22.97779 120.24758 38460 ft 441 kts 343°
2026-05-07 16:28 23.00764 120.23975 38188 ft 442 kts 343°
2026-05-07 16:29 23.03757 120.23190 37931 ft 443 kts 343°
2026-05-07 16:29 23.06761 120.22402 37674 ft 444 kts 343°
2026-05-07 16:29 23.09772 120.21612 37427 ft 446 kts 343°
2026-05-07 16:29 23.12838 120.21005 37171 ft 450 kts 351°
2026-05-07 16:30 23.15985 120.20939 36925 ft 456 kts
2026-05-07 16:30 23.19157 120.21258 36677 ft 459 kts
2026-05-07 16:30 23.22337 120.21642 36425 ft 461 kts
2026-05-07 16:30 23.25529 120.22031 36191 ft 462 kts
2026-05-07 16:31 23.28729 120.22418 35946 ft 463 kts
2026-05-07 16:31 23.31943 120.22805 35713 ft 465 kts
2026-05-07 16:31 23.35159 120.23190 35476 ft 466 kts
2026-05-07 16:31 23.38344 120.23572 35263 ft 467 kts
2026-05-07 16:32 23.41584 120.23959 35026 ft 469 kts
2026-05-07 16:32 23.44830 120.24347 34796 ft 470 kts
2026-05-07 16:32 23.48091 120.24737 34565 ft 472 kts
2026-05-07 16:32 23.51357 120.25128 34000 ft 472 kts
2026-05-07 16:33 23.54636 120.25519 33101 ft 477 kts
2026-05-07 16:33 23.57965 120.25917 32171 ft 484 kts
2026-05-07 16:33 23.61326 120.26319 31256 ft 489 kts
2026-05-07 16:33 23.64734 120.26727 30316 ft 496 kts
2026-05-07 16:34 23.68186 120.27142 29383 ft 500 kts
2026-05-07 16:34 23.71607 120.27834 28698 ft 501 kts 12°
2026-05-07 16:34 23.74947 120.28926 28023 ft 500 kts 14°
2026-05-07 16:34 23.78255 120.30080 27356 ft 497 kts 14°
2026-05-07 16:35 23.81535 120.31226 26688 ft 494 kts 14°
2026-05-07 16:35 23.84805 120.32365 26022 ft 491 kts 14°
2026-05-07 16:35 23.88050 120.33493 25364 ft 488 kts 14°
2026-05-07 16:35 23.91277 120.34613 24720 ft 486 kts 14°
2026-05-07 16:36 23.94488 120.35727 24086 ft 483 kts 14°
2026-05-07 16:36 23.97687 120.36837 23463 ft 479 kts 14°
2026-05-07 16:36 24.00846 120.37933 22782 ft 475 kts 14°
2026-05-07 16:36 24.03990 120.39024 22138 ft 471 kts 14°
2026-05-07 16:37 24.07096 120.40103 21494 ft 467 kts 14°
2026-05-07 16:37 24.10184 120.41176 20857 ft 463 kts 14°
2026-05-07 16:37 24.13238 120.42238 20236 ft 459 kts 15°
2026-05-07 16:37 24.16233 120.43279 19665 ft 455 kts 15°
2026-05-07 16:38 24.19233 120.44323 19110 ft 450 kts 15°
2026-05-07 16:38 24.22208 120.45359 18551 ft 446 kts 15°
2026-05-07 16:38 24.25153 120.46385 17934 ft 442 kts 15°
2026-05-07 16:38 24.28077 120.47404 17294 ft 438 kts 15°
2026-05-07 16:39 24.30968 120.48412 16693 ft 434 kts 15°
2026-05-07 16:39 24.33831 120.49410 16100 ft 430 kts 15°
2026-05-07 16:39 24.36667 120.50400 15510 ft 426 kts 15°
2026-05-07 16:39 24.39474 120.51380 14939 ft 422 kts 15°
2026-05-07 16:40 24.42261 120.52353 14382 ft 418 kts 15°
2026-05-07 16:40 24.45019 120.53317 13832 ft 414 kts 15°
2026-05-07 16:40 24.47756 120.54274 13210 ft 411 kts 15°
2026-05-07 16:40 24.50468 120.55222 12591 ft 407 kts 15°
2026-05-07 16:41 24.53154 120.56161 11979 ft 404 kts 15°
2026-05-07 16:41 24.55824 120.57096 11424 ft 400 kts 15°
2026-05-07 16:41 24.58418 120.58006 11105 ft 382 kts 15°
2026-05-07 16:41 24.60895 120.58875 10813 ft 366 kts 15°
2026-05-07 16:42 24.63264 120.59707 10553 ft 348 kts 15°
2026-05-07 16:42 24.65482 120.60487 10314 ft 323 kts 15°
2026-05-07 16:42 24.67499 120.61423 10105 ft 312 kts 30°
2026-05-07 16:42 24.69204 120.62865 9923 ft 307 kts 39°
2026-05-07 16:43 24.70781 120.64408 9604 ft 306 kts 40°
2026-05-07 16:43 24.72359 120.65975 9264 ft 305 kts 40°
2026-05-07 16:43 24.73933 120.67534 8933 ft 304 kts 40°
2026-05-07 16:43 24.75504 120.69085 8598 ft 303 kts 40°
2026-05-07 16:44 24.77069 120.70628 8273 ft 302 kts 40°
2026-05-07 16:44 24.78629 120.72164 7962 ft 300 kts 40°
2026-05-07 16:44 24.80182 120.73690 7662 ft 298 kts 41°
2026-05-07 16:44 24.81725 120.75208 7354 ft 297 kts 41°
2026-05-07 16:45 24.83261 120.76724 7052 ft 296 kts 41°
2026-05-07 16:45 24.84786 120.78244 6689 ft 296 kts 41°
2026-05-07 16:45 24.86308 120.79773 6356 ft 296 kts 42°
2026-05-07 16:45 24.87819 120.81292 6047 ft 293 kts 42°
2026-05-07 16:46 24.89328 120.82786 5755 ft 290 kts 41°
2026-05-07 16:46 24.90833 120.84267 5403 ft 290 kts 44°
2026-05-07 16:46 24.92122 120.85958 5048 ft 288 kts 61°
2026-05-07 16:46 24.92748 120.88011 4744 ft 280 kts 90°
2026-05-07 16:47 24.92482 120.90098 4660 ft 278 kts 105°
2026-05-07 16:47 24.92034 120.92156 4499 ft 273 kts 105°
2026-05-07 16:47 24.91667 120.94222 4480 ft 277 kts 101°
2026-05-07 16:47 24.91440 120.96290 4443 ft 266 kts 97°
2026-05-07 16:48 24.91317 120.98276 4403 ft 254 kts 95°
2026-05-07 16:48 24.91235 121.00170 4362 ft 242 kts 95°
2026-05-07 16:48 24.91156 121.02010 4174 ft 239 kts 94°
2026-05-07 16:48 24.91381 121.03803 3957 ft 235 kts 72°
2026-05-07 16:49 24.92160 121.05336 3764 ft 226 kts 49°
2026-05-07 16:49 24.93292 121.06503 3555 ft 220 kts 38°
2026-05-07 16:49 24.94446 121.07589 3412 ft 216 kts 43°
2026-05-07 16:49 24.95451 121.08787 3272 ft 211 kts 52°
2026-05-07 16:50 24.96341 121.10031 3097 ft 203 kts 51°
2026-05-07 16:50 24.97250 121.11188 2865 ft 197 kts 47°
2026-05-07 16:50 24.98170 121.12288 2566 ft 194 kts 48°
2026-05-07 16:50 24.99028 121.13380 2263 ft 185 kts 50°
2026-05-07 16:51 24.99820 121.14423 1991 ft 174 kts 50°
2026-05-07 16:51 25.00594 121.15433 1769 ft 169 kts 48°
2026-05-07 16:51 25.01356 121.16375 1480 ft 160 kts 48°
2026-05-07 16:51 25.02084 121.17275 1260 ft 149 kts 49°
2026-05-07 16:52 25.02728 121.18104 1053 ft 140 kts 49°
2026-05-07 16:52 25.03372 121.18910 904 ft 140 kts 48°
2026-05-07 16:52 25.04015 121.19720 736 ft 140 kts 49°
2026-05-07 16:52 25.04649 121.20527 568 ft 139 kts 49°
2026-05-07 16:53 25.05284 121.21328 379 ft 138 kts 48°
2026-05-07 16:53 25.05909 121.22120 212 ft 136 kts 47°
2026-05-07 16:53 25.06506 121.22880 100 ft 126 kts 49°
2026-05-07 16:53 25.06954 121.23458 100 ft 74 kts 49°
2026-05-07 16:54 25.07191 121.23757 98 ft 41 kts 49°
2026-05-07 16:54 25.07370 121.23984 101 ft 38 kts 49°
2026-05-07 16:54 25.07540 121.24156 99 ft 32 kts 30°
2026-05-07 16:54 25.07673 121.24218 102 ft 17 kts 20°
2026-05-07 16:55 25.07771 121.24257 105 ft 9 kts 20°
2026-05-07 16:55 25.07831 121.24277 105 ft 9 kts
2026-05-07 16:55 25.07891 121.24260 104 ft 9 kts 325°
2026-05-07 16:55 25.07944 121.24210 106 ft 11 kts 319°
2026-05-07 16:56 25.07987 121.24149 105 ft 10 kts 280°
2026-05-07 16:56 25.07954 121.24085 105 ft 10 kts 227°
2026-05-07 16:56 25.07900 121.23985 105 ft 5 kts 289°
2026-05-07 16:57 25.07922 121.23961 107 ft 5 kts 319°
2026-05-07 16:57 25.07952 121.23933 105 ft 7 kts 319°
2026-05-07 16:57 25.07976 121.23911 105 ft 2 kts 320°
2026-05-07 16:57 25.07978 121.23909 107 ft 0 kts 320°
2026-05-07 16:58 25.07982 121.23906 106 ft 2 kts 320°
2026-05-07 16:58 25.07984 121.23904 106 ft 0 kts 320°